Wind_Speed
24 24 24 23 22 21 20 18 18 18 17 16 15 13 13 14 14 12 9 9 9 11 12 14 15 15 14 14 15 15 14 12 11 12 14 16 17 16 16 19 21 22 23 24 24 25 27 28 28 28 28 29 31 33 33 32 30 29 29 29 29 28 26 20 12 11 19 26 27 28 33 34 34 37 39 38 37 36 35 36 36 35 37 39 37
24 24 24 23 23 22 21 20 19 18 18 17 15 15 15 15 13 11 11 11 12 13 13 15 15 15 14 13 13 13 14 14 14 14 15 17 17 17 17 19 21 21 22 23 23 23 26 28 29 28 28 28 30 32 33 33 31 30 30 29 28 29 29 25 19 15 17 24 28 30 33 34 33 36 37 35 35 36 35 35 36 33 33 38 40
25 24 24 24 23 22 21 20 18 17 16 15 15 16 16 14 12 11 11 13 14 15 15 16 16 14 13 14 13 14 16 16 15 15 16 17 18 19 19 19 20 20 21 22 21 21 23 26 27 28 28 28 27 30 32 34 32 30 30 29 28 28 29 27 23 18 16 21 27 31 32 32 32 34 35 33 32 35 34 33 35 33 31 36 41
25 24 24 23 22 21 20 19 17 16 16 16 16 17 16 13 12 11 12 15 16 15 15 16 15 13 13 14 15 17 18 17 17 16 16 17 20 20 20 20 19 18 20 21 21 21 22 24 25 26 27 27 25 26 30 32 33 31 29 29 28 27 27 27 24 21 19 20 24 28 30 30 30 33 35 35 33 33 33 32 34 34 31 34 41
25 24 24 23 21 20 20 19 19 17 17 18 18 18 16 13 12 12 15 18 17 16 15 14 13 12 12 14 15 17 18 18 18 18 18 20 20 20 19 19 19 18 18 20 22 23 22 23 24 24 25 26 24 24 26 29 31 31 29 28 27 26 25 25 25 24 23 22 23 27 30 30 30 33 36 36 34 34 34 32 34 34 32 33 38
25 24 24 23 22 22 21 21 20 19 18 19 18 17 15 13 13 15 16 17 17 15 14 12 12 13 15 16 17 18 18 18 18 19 19 20 20 20 19 19 19 19 18 19 21 23 22 22 23 23 22 22 22 22 24 27 30 31 29 27 26 25 24 23 24 26 25 24 24 27 30 31 31 32 34 33 31 33 35 34 35 36 34 33 36
25 25 25 24 24 24 23 22 21 19 19 19 18 17 16 15 15 17 16 16 16 15 14 14 15 17 18 19 19 19 19 19 19 19 19 19 19 20 20 20 19 19 19 19 20 21 21 22 23 23 21 19 19 20 22 25 29 29 28 27 26 25 25 23 24 25 26 25 26 27 29 30 30 30 32 31 29 30 34 32 33 36 34 31 32
25 25 25 26 26 25 23 22 21 20 20 21 19 18 16 16 17 17 16 15 15 15 15 17 18 19 20 20 21 20 20 20 19 18 18 18 18 19 19 19 19 20 20 20 20 20 19 20 22 24 22 19 17 17 18 21 26 28 27 27 26 25 25 24 23 23 25 25 25 26 28 30 32 32 33 34 31 31 33 30 27 30 31 27 26
26 26 26 26 26 25 24 24 23 23 22 20 17 17 17 19 19 18 17 17 16 16 17 18 20 20 20 21 21 21 20 20 18 17 17 17 18 18 18 18 18 20 21 21 21 19 17 18 22 24 23 19 16 16 15 15 19 24 25 25 26 26 25 24 23 22 23 23 24 25 27 29 32 33 33 33 30 28 30 29 26 27 28 24 22
26 26 26 27 27 26 26 25 25 24 21 17 17 19 21 22 22 21 20 19 18 17 18 20 21 21 21 22 22 22 21 20 17 16 15 16 16 16 17 17 18 19 20 21 21 20 19 19 21 24 25 21 17 17 17 15 15 19 22 22 23 25 26 25 24 22 22 22 23 24 24 26 30 32 31 31 29 27 27 27 26 26 26 23 19
25 25 26 27 28 28 27 27 26 24 20 19 21 22 22 23 23 23 21 20 18 18 19 21 21 21 22 22 23 23 22 20 17 16 15 15 15 16 16 17 18 19 20 21 22 22 22 22 22 24 26 25 20 18 18 18 17 17 19 21 21 23 26 26 25 23 22 23 24 25 24 25 29 32 32 32 31 28 27 26 25 24 24 21 16
23 23 24 26 27 29 30 29 28 24 22 22 22 22 22 23 23 22 21 20 19 18 19 21 21 21 22 22 23 23 22 20 19 19 19 19 19 19 20 20 21 21 21 23 24 25 24 24 23 24 25 25 23 21 20 20 19 17 18 20 22 25 27 27 25 22 23 24 24 25 26 26 29 32 33 31 30 30 28 28 26 23 21 21 19
22 22 23 24 24 26 29 29 27 25 24 24 24 23 23 23 22 22 21 20 19 19 19 20 20 20 21 22 22 22 21 19 19 19 21 22 23 24 25 25 25 25 25 25 26 27 26 25 25 24 23 22 22 23 23 22 22 21 19 17 19 24 27 28 26 23 23 26 27 26 27 29 30 32 33 31 30 30 29 27 26 24 22 22 21
23 23 24 24 24 24 26 27 26 26 26 25 25 24 24 23 23 22 21 20 20 19 18 19 19 19 20 21 21 20 19 19 18 18 18 19 22 24 26 27 27 27 27 27 28 28 28 27 26 25 24 22 22 22 22 23 23 22 21 19 17 19 23 27 28 25 23 26 29 28 29 33 34 35 37 35 31 29 28 26 25 23 20 20 20
25 26 26 26 26 25 25 24 26 28 27 26 25 25 25 24 23 22 22 21 20 19 18 18 18 19 19 19 19 18 17 17 17 17 16 16 18 21 24 25 26 27 27 27 28 28 28 28 27 27 25 24 24 22 22 22 21 20 21 22 20 17 20 25 28 27 23 23 26 28 29 33 37 39 41 40 36 31 29 27 25 22 20 21 23
26 27 27 28 28 27 25 25 27 29 28 26 26 26 26 25 23 23 23 22 20 19 17 16 16 17 17 17 17 16 15 15 17 18 17 16 16 18 21 23 24 26 26 27 28 28 28 27 27 27 27 26 25 24 23 22 21 20 21 22 22 19 19 23 26 28 26 23 21 24 26 29 34 38 41 42 40 36 34 32 30 29 26 23 24
27 27 28 29 28 26 26 27 29 29 29 28 27 26 26 25 24 23 23 22 21 20 18 15 15 15 15 15 15 15 14 15 16 17 17 16 16 18 19 20 22 23 24 25 26 27 27 27 26 26 26 26 25 24 23 22 21 22 22 23 25 22 20 23 25 25 28 27 22 20 22 25 30 34 38 40 41 40 39 35 33 32 29 21 19
28 28 29 28 27 27 29 30 29 29 29 28 28 27 26 25 24 23 24 24 22 21 19 17 15 14 14 14 13 13 14 15 14 16 17 16 16 17 18 19 20 20 22 24 25 25 26 26 26 26 25 25 25 24 23 23 23 24 24 25 28 26 22 23 25 24 25 27 25 21 18 21 26 31 35 38 40 42 40 35 31 32 28 22 19
28 29 28 27 28 31 32 30 29 29 29 28 28 27 26 26 25 24 23 22 21 20 19 18 17 15 14 14 13 13 14 15 14 16 18 18 17 17 18 19 20 19 19 21 22 23 24 24 24 25 24 24 24 23 23 23 23 24 25 25 28 28 23 22 23 23 23 24 25 23 19 17 21 27 31 34 37 40 40 36 33 32 28 23 22
28 28 27 29 32 32 31 29 29 29 29 29 28 27 26 26 25 23 22 21 21 20 18 17 16 15 14 15 14 13 14 15 15 16 17 18 17 17 17 18 19 18 17 18 20 21 22 22 23 23 23 22 22 23 22 22 22 23 25 26 26 26 24 22 21 21 22 22 23 24 21 17 18 22 26 30 34 36 37 37 36 34 29 25 24
28 28 29 32 33 31 30 29 29 29 29 28 27 26 25 25 24 23 23 23 22 20 17 15 15 13 13 14 15 14 13 14 15 15 17 17 16 16 17 17 16 16 16 17 18 19 19 19 20 21 23 22 21 21 21 21 21 21 23 25 24 24 25 24 22 22 23 22 21 22 23 21 19 20 21 24 28 31 33 35 35 35 32 28 26
27 30 32 32 31 30 29 30 30 30 28 27 27 26 25 25 25 26 25 23 22 20 18 17 16 15 14 14 15 14 14 13 13 14 15 16 16 16 17 15 14 15 18 18 18 17 17 17 17 18 20 22 21 20 20 21 22 21 20 21 21 22 23 25 24 25 27 26 22 21 23 24 23 21 20 20 21 24 28 30 32 33 33 31 28
30 33 33 31 30 31 31 31 31 29 27 27 27 27 27 27 27 26 24 23 22 21 20 19 18 17 16 16 16 16 16 15 14 15 15 15 15 14 14 14 15 18 20 20 18 17 16 15 14 14 15 18 20 19 19 20 21 21 20 19 19 20 21 23 24 25 26 27 25 23 22 23 24 23 22 20 18 18 21 24 27 29 30 31 31
33 32 31 31 31 32 32 31 30 28 27 27 27 28 28 28 26 24 23 23 24 23 21 19 18 18 19 20 20 20 19 17 16 15 14 14 14 14 15 17 18 18 17 16 15 14 14 14 14 13 12 13 16 18 18 18 19 20 21 20 19 20 21 22 23 24 24 25 26 25 23 22 22 23 23 22 20 17 16 17 19 23 26 28 29
32 32 32 32 32 31 30 29 28 28 27 27 27 29 29 27 26 25 24 24 24 23 21 18 19 20 21 23 24 24 22 21 20 18 17 16 17 17 17 16 15 13 11 10 10 10 11 12 14 14 13 12 14 17 18 18 18 19 21 21 20 20 21 22 23 24 25 25 24 25 24 22 21 21 21 22 22 20 17 15 14 15 18 21 24
33 33 32 32 31 30 29 28 28 27 26 25 27 28 27 27 27 26 25 24 24 24 22 19 19 20 21 23 24 23 21 19 19 18 18 17 16 15 13 11 10 9 8 8 8 8 10 12 13 14 13 13 13 15 17 17 17 18 19 20 21 21 20 21 23 24 25 24 23 24 24 22 20 19 19 20 21 21 19 17 15 14 13 13 17
33 32 31 31 30 30 29 29 27 26 25 25 26 26 26 27 27 26 25 25 24 25 24 21 20 20 21 21 21 19 16 15 14 13 13 13 12 11 9 9 8 8 7 7 8 10 12 12 12 13 13 12 12 14 15 16 17 18 18 19 20 20 19 20 21 23 24 23 22 22 22 22 21 21 22 22 22 21 20 19 20 21 17 13 11
32 30 30 30 30 30 30 29 28 27 27 26 26 25 25 26 25 24 24 24 25 26 26 24 21 20 20 20 19 16 13 11 11 11 9 8 9 9 8 8 8 8 7 8 10 12 13 12 12 12 12 12 12 13 14 15 16 16 17 17 18 18 18 18 19 21 22 22 21 21 20 21 21 21 23 24 24 23 22 21 22 25 23 17 12
31 29 29 30 30 30 29 28 28 29 28 26 24 23 23 22 21 21 21 22 23 25 26 24 22 19 19 19 19 16 14 12 11 9 8 7 8 8 7 8 9 8 8 10 11 12 11 11 11 11 11 12 12 12 13 14 15 15 15 15 15 17 18 18 18 19 20 21 22 21 20 21 21 21 22 23 23 23 24 23 23 24 25 23 19
30 29 30 31 30 30 29 29 29 29 27 26 24 22 20 19 18 18 17 18 21 22 22 22 22 20 19 19 17 14 14 13 12 10 9 8 8 8 8 9 10 9 8 9 10 11 11 10 11 10 10 10 11 12 12 12 13 14 14 13 13 14 15 17 17 17 18 19 21 21 20 20 20 21 21 22 22 22 23 23 22 22 23 24 24
30 30 32 32 31 30 30 30 30 29 28 28 27 25 23 21 18 17 16 16 18 20 20 21 20 19 19 19 16 13 12 13 12 11 10 8 8 9 11 11 10 8 7 7 8 9 10 10 9 9 9 9 10 10 10 10 11 12 12 12 12 11 11 13 14 14 15 17 18 18 19 19 19 19 20 20 20 20 21 22 21 21 20 20 21
30 31 32 31 31 31 31 31 31 30 29 29 29 28 27 25 23 20 17 16 17 18 19 19 19 19 18 17 15 13 13 14 13 11 10 9 10 13 14 11 9 7 6 6 7 8 9 9 8 8 7 8 8 9 9 9 9 9 10 11 11 11 10 10 11 12 13 14 15 16 17 17 16 17 18 19 19 20 20 21 21 21 20 19 18
31 31 31 31 32 32 31 31 31 31 31 31 30 29 29 28 26 24 21 19 18 18 18 17 17 17 17 14 12 12 14 15 13 12 12 12 13 15 14 10 8 7 6 6 7 8 8 8 8 7 6 6 7 6 7 8 8 8 8 9 9 10 9 8 8 10 12 12 13 14 15 15 15 15 15 17 18 18 18 19 20 20 20 20 18
31 31 32 32 33 32 32 32 31 31 31 30 30 29 28 28 28 27 25 23 21 19 18 17 15 15 14 13 12 13 15 15 14 13 13 13 14 15 13 10 8 7 6 6 6 6 6 6 6 5 5 5 5 5 5 6 6 6 7 8 8 8 9 8 7 9 11 11 11 11 12 13 14 14 14 14 15 16 17 17 17 18 19 20 19
31 31 30 31 32 32 31 30 30 29 29 29 28 29 28 27 27 26 25 24 22 20 18 17 15 14 14 14 14 15 15 15 15 15 14 15 15 15 13 11 8 7 6 5 5 5 6 5 5 5 4 4 4 4 4 4 4 4 5 7 7 7 8 8 7 8 9 9 8 8 9 11 12 12 12 12 14 16 16 15 14 15 15 17 18
31 31 29 29 30 30 29 28 28 28 28 28 27 27 27 26 25 25 23 23 22 21 19 18 17 16 15 16 16 16 16 16 16 16 16 16 15 13 11 9 6 5 5 6 6 5 5 5 5 4 4 4 4 3 3 3 4 4 3 5 7 6 6 7 7 6 7 8 7 6 6 8 11 12 10 10 12 14 15 15 14 13 12 13 15
33 32 30 29 29 29 27 27 27 26 26 26 25 25 25 25 24 24 23 22 22 22 21 20 20 19 18 17 17 16 16 16 17 17 17 15 13 11 8 6 4 4 5 7 7 6 6 5 5 5 4 4 3 3 2 2 2 2 2 3 5 5 5 5 5 5 5 6 8 7 5 5 8 11 10 9 10 12 13 13 14 13 11 11 13
33 32 30 30 30 29 27 27 26 25 25 25 25 25 25 25 24 24 23 23 23 23 23 22 22 21 20 19 18 17 17 18 18 18 16 14 12 9 6 4 3 4 6 8 8 6 7 7 6 5 5 4 4 3 3 3 2 1 0 0 2 3 4 5 6 5 4 5 8 9 6 3 5 8 9 9 10 11 11 11 13 13 13 12 14
32 30 29 29 29 29 28 28 27 27 27 27 26 25 26 26 25 25 24 24 24 24 24 24 23 22 22 20 19 19 18 18 18 18 16 15 12 9 6 5 5 5 7 9 8 7 8 9 8 7 6 5 4 4 4 4 3 2 1 1 1 1 2 5 6 5 3 4 7 9 6 4 4 6 8 8 9 10 10 11 11 12 12 12 13
32 30 28 29 30 29 29 29 29 29 29 29 27 26 27 27 27 26 26 25 24 23 24 24 24 23 22 21 21 20 19 19 19 19 18 16 13 9 7 7 7 7 8 9 7 7 8 9 8 8 8 7 6 6 5 5 4 3 3 2 2 2 2 3 5 5 3 2 4 7 6 5 4 5 6 7 7 8 8 9 9 9 10 10 11
33 30 29 30 30 30 30 30 30 30 31 30 28 27 28 28 28 27 27 26 24 23 23 24 24 22 22 21 21 20 20 19 18 19 19 18 14 11 10 8 7 8 10 10 8 8 9 9 9 10 10 9 9 8 7 7 6 5 5 5 5 4 3 3 3 4 4 2 2 4 4 4 5 6 6 6 6 6 7 7 7 7 9 9 8
33 31 30 31 30 30 31 31 30 30 30 29 27 27 28 28 28 28 28 26 24 23 22 23 23 22 21 20 20 19 18 18 18 19 19 18 15 13 12 10 8 9 10 10 10 10 10 10 11 11 12 11 10 10 10 10 8 7 7 8 8 8 6 5 5 5 6 5 5 4 2 2 4 5 5 6 7 6 5 6 7 7 8 9 8
32 30 29 30 30 30 31 32 30 28 29 29 27 27 28 28 27 28 29 27 25 23 21 22 24 23 20 19 19 18 18 19 18 18 17 15 15 16 16 14 11 11 11 11 10 10 11 12 13 12 12 12 11 11 11 11 11 9 8 8 8 8 7 7 7 8 9 9 7 5 3 2 3 4 5 6 7 6 5 6 7 7 7 8 9
30 27 26 27 29 29 30 31 28 25 26 28 27 27 28 27 25 28 30 28 26 23 21 21 23 24 23 22 21 21 21 21 19 17 18 17 15 14 17 17 14 12 12 12 11 12 13 14 15 14 14 13 13 12 11 10 10 11 11 11 10 10 10 10 9 10 11 10 8 7 7 7 6 6 6 6 6 7 6 6 7 7 6 7 9
28 25 24 27 29 28 28 28 26 23 23 26 27 27 26 24 24 27 30 28 26 24 23 22 24 25 25 26 26 25 23 22 19 18 20 20 16 13 13 15 15 14 14 13 13 15 16 16 16 16 15 15 14 13 12 11 11 11 12 12 13 13 13 12 11 12 13 13 12 12 11 10 9 9 9 8 7 8 8 8 8 8 7 7 8
26 23 24 27 28 26 25 25 24 21 21 24 26 27 25 22 22 27 29 27 25 25 22 21 23 24 25 27 29 27 24 22 20 18 19 21 20 16 13 13 13 14 15 15 14 15 17 18 17 17 16 15 14 14 15 15 15 15 14 14 15 15 14 14 14 15 15 15 16 15 13 12 11 11 10 10 10 10 10 10 11 11 10 10 9
24 22 23 26 27 25 22 23 23 21 21 22 25 27 25 21 20 24 26 24 24 25 22 19 19 22 23 26 28 27 24 22 21 20 19 20 21 20 18 16 15 15 16 17 16 16 18 19 19 18 17 17 17 16 17 17 18 18 18 18 18 17 16 15 16 18 19 19 18 17 16 16 15 13 12 12 12 13 14 14 15 14 13 13 12
23 21 21 24 26 23 20 20 21 21 21 22 23 25 26 22 18 20 24 24 23 24 23 20 18 20 23 25 25 25 24 22 20 19 18 18 18 19 19 18 17 17 17 18 18 18 19 20 21 21 20 19 19 19 19 19 19 19 19 19 19 19 19 18 19 19 20 20 21 21 21 20 19 18 17 16 16 16 17 17 18 17 16 15 15
22 20 19 22 24 21 18 19 20 20 21 21 20 22 26 24 18 17 21 25 24 23 24 23 21 19 21 24 24 23 23 22 20 19 18 17 16 17 18 18 19 20 21 21 20 20 21 22 22 22 21 21 20 20 20 20 20 20 21 20 20 20 20 20 21 21 21 21 22 24 24 24 24 23 22 21 21 21 20 20 20 20 19 18 18
22 20 18 20 22 19 17 19 21 20 20 20 19 20 24 26 22 18 19 23 25 24 23 24 24 21 20 21 22 23 23 22 21 20 19 19 19 19 19 20 20 21 22 23 23 23 24 24 24 23 22 22 21 21 20 21 21 22 22 21 21 20 20 19 20 21 22 23 24 24 25 27 27 27 27 26 25 24 24 24 24 23 22 22 22
21 19 16 16 19 19 17 19 22 21 21 21 20 19 22 25 26 22 19 21 24 25 24 24 24 24 23 22 22 22 23 24 24 24 22 22 21 21 21 21 21 22 22 23 24 24 25 25 26 26 25 24 23 23 22 22 21 21 21 20 20 19 19 18 18 18 19 21 23 25 26 28 29 30 30 30 30 29 29 29 28 27 26 26 26
Wind_Direction
138 136 134 132 130 127 127 129 131 132 135 135 131 130 138 144 145 138 122 115 125 126 117 111 109 103 92 89 93 90 83 80 79 78 78 76 76 76 67 57 54 52 51 51 50 49 48 46 43 42 42 41 38 34 33 33 35 37 34 32 32 28 26 33 36 18 15 15 12 9 8 8 8 8 8 9 12 15 17 19 19 22 25 23 23
138 137 136 133 130 128 130 132 133 132 133 134 132 135 143 144 138 123 107 106 119 126 122 116 114 109 103 103 103 96 88 84 82 80 79 78 78 75 66 60 58 56 56 55 52 49 48 46 45 43 44 45 42 38 36 35 36 37 37 36 34 33 34 36 34 24 12 12 13 10 10 12 9 7 7 7 8 10 13 17 17 19 19 19 22
140 139 136 132 131 133 134 134 134 135 135 135 137 143 149 145 134 124 114 112 117 122 123 121 121 118 110 107 107 103 97 91 84 78 76 79 81 76 68 64 63 61 61 60 55 51 49 46 43 41 43 46 45 42 39 38 39 39 40 39 37 36 39 39 35 28 16 13 15 12 10 12 10 7 7 7 8 10 12 13 15 17 16 15 18
141 138 134 132 134 136 135 135 139 141 139 136 139 144 146 139 130 124 120 119 120 122 124 125 125 123 113 106 106 105 101 95 88 79 76 82 85 80 75 71 70 67 64 61 57 53 51 48 43 39 41 44 46 45 43 41 41 42 42 42 41 40 41 41 37 32 26 19 18 16 13 12 12 10 8 8 10 11 11 12 13 16 14 12 15
140 138 135 135 137 138 137 139 142 142 137 136 141 143 141 136 127 122 121 121 121 123 125 127 127 122 113 107 105 105 103 98 91 82 79 84 83 78 75 73 72 70 67 61 55 54 54 50 44 40 40 43 45 46 46 44 43 45 46 45 45 44 43 42 38 35 33 26 19 17 17 15 13 13 13 10 8 9 11 12 13 15 13 9 11
142 139 138 138 139 140 141 142 142 143 144 147 150 149 147 143 131 126 127 122 119 122 123 122 120 117 113 109 105 104 103 99 93 87 84 85 84 80 78 76 72 70 68 63 55 52 53 51 46 42 41 43 45 45 47 48 46 47 48 47 46 44 42 40 37 35 34 30 23 19 18 17 14 13 14 13 10 9 8 8 11 13 12 9 7
144 142 142 141 141 141 142 143 143 147 153 152 151 150 150 147 134 128 129 124 120 122 121 118 116 114 111 107 104 104 104 101 96 91 87 86 87 84 80 79 76 71 69 66 60 54 50 48 47 44 42 44 48 46 47 51 52 50 50 50 48 45 42 39 38 36 34 30 26 22 18 17 16 13 12 13 14 14 10 6 6 8 9 9 8
147 146 145 144 143 143 144 146 147 148 150 149 149 151 150 143 135 132 130 124 120 120 120 120 117 114 110 106 104 104 104 101 98 95 92 90 89 86 82 80 78 74 70 67 64 59 52 47 46 45 44 44 48 49 48 51 54 53 52 52 49 46 42 39 38 37 35 31 28 24 20 17 15 13 12 13 12 11 9 6 2 2 5 7 10
150 150 148 147 146 145 147 148 147 149 153 155 155 151 141 135 132 130 126 121 118 118 120 122 119 115 110 106 104 104 101 98 97 97 97 97 95 92 89 85 81 78 74 69 65 62 59 53 49 48 50 50 49 52 52 51 54 54 52 50 49 45 41 38 38 39 37 33 29 25 23 20 16 12 11 13 11 6 5 6 3 2 3 6 11
154 153 152 149 148 149 149 148 149 157 163 160 150 141 134 131 129 126 122 120 118 119 121 121 119 115 111 108 106 103 98 95 96 99 102 103 102 100 96 90 87 83 77 71 66 63 63 60 54 51 54 58 59 58 57 56 56 55 52 48 45 43 40 37 38 41 40 36 32 28 26 24 18 13 9 9 10 11 10 8 5 3 4 6 10
158 156 154 154 154 154 152 150 155 162 160 148 142 138 133 131 128 125 123 122 121 122 123 121 119 116 114 112 108 103 98 96 96 98 102 105 106 104 99 94 89 83 78 74 69 66 64 62 58 55 55 59 64 64 60 56 55 58 58 54 49 45 40 37 39 44 46 42 37 34 32 27 21 16 11 8 11 14 15 13 10 7 8 7 3
160 157 155 155 158 158 155 156 161 161 155 149 145 140 134 131 129 126 124 124 123 123 123 122 121 119 118 115 111 106 103 100 97 92 92 97 100 98 94 90 85 80 77 74 71 68 66 63 60 57 56 59 62 60 57 52 50 57 62 60 56 53 48 42 42 48 54 51 45 39 36 32 27 21 16 13 14 16 17 18 15 13 14 12 7
160 157 155 156 159 161 161 162 164 162 157 151 146 141 137 133 131 129 127 127 126 123 124 125 124 123 122 118 114 111 108 107 104 95 89 89 91 91 89 85 81 77 74 72 70 68 66 64 61 58 56 58 59 57 56 54 53 56 57 54 53 55 54 49 46 51 59 59 54 49 45 40 34 28 25 24 23 21 19 19 17 16 18 16 11
163 160 159 159 163 168 168 164 160 156 153 147 142 140 138 134 132 132 130 129 127 123 125 128 127 125 125 121 118 115 111 110 111 104 95 89 86 86 85 82 79 75 72 71 70 69 67 65 63 60 58 57 55 55 56 57 57 58 55 50 47 49 53 52 49 52 60 62 61 59 53 48 44 38 35 35 34 29 25 22 18 16 20 20 16
165 163 163 163 167 173 173 164 155 151 149 146 143 140 138 135 134 133 131 129 127 125 127 130 130 128 127 125 122 117 112 113 116 112 105 97 89 84 82 80 77 74 73 73 72 71 70 68 66 63 60 58 56 57 57 57 59 60 54 51 52 54 58 57 53 53 58 62 63 62 56 49 46 43 40 40 40 38 36 33 29 26 27 26 23
167 167 167 168 170 174 172 161 151 149 148 146 143 140 138 137 136 135 132 129 128 128 128 131 134 133 132 131 127 118 112 115 121 121 115 106 96 88 83 80 76 74 74 76 75 73 71 70 68 65 61 58 57 57 59 59 59 57 52 49 53 60 65 63 59 58 58 61 66 65 56 48 44 41 39 39 39 39 40 38 35 33 32 28 22
172 171 171 171 173 172 166 156 150 149 148 145 142 140 139 139 139 138 135 131 130 130 129 130 135 139 140 139 132 122 111 112 123 130 126 116 103 95 90 85 80 77 78 78 77 75 73 70 69 66 62 58 57 56 57 58 56 53 49 46 46 53 62 65 63 62 61 61 66 69 58 46 41 40 40 40 38 38 39 37 32 31 31 27 17
176 174 174 175 172 165 158 153 150 149 148 145 143 141 140 141 142 141 139 135 133 133 131 129 129 137 143 142 138 128 112 106 118 132 134 127 114 103 98 94 88 83 82 81 79 77 75 72 68 65 62 59 58 56 55 55 53 50 48 46 44 47 58 65 63 63 64 61 62 69 64 45 39 41 41 40 39 39 41 39 35 34 33 29 17
177 176 175 170 161 156 154 153 151 149 147 146 144 142 142 143 143 143 142 138 134 133 133 129 127 133 142 143 141 132 116 106 111 124 130 129 121 111 106 101 95 89 85 83 81 78 76 72 67 64 61 60 59 56 53 54 53 50 50 49 45 45 55 66 63 61 64 63 61 66 68 52 41 42 44 43 40 41 43 43 42 41 39 34 25
175 173 166 157 152 153 154 154 153 150 148 147 145 145 145 145 145 144 141 137 134 134 134 132 131 135 141 145 143 135 120 109 107 117 125 126 123 119 112 106 100 95 89 85 83 80 75 72 68 64 61 59 59 58 54 53 53 52 52 51 48 48 56 64 65 61 62 64 63 63 65 58 45 42 44 46 44 43 43 44 44 45 44 41 35
170 166 157 151 152 154 154 154 153 150 149 148 148 148 149 148 146 143 141 139 137 135 133 133 134 136 140 144 144 137 126 115 109 114 121 123 124 121 114 110 106 100 95 90 86 82 77 73 69 65 61 58 58 59 57 55 54 54 55 55 56 59 61 61 61 58 56 61 65 62 58 56 50 44 42 46 47 45 45 45 46 47 48 47 44
166 159 153 150 152 154 154 153 151 149 150 150 149 150 150 150 148 146 144 143 138 132 129 128 128 127 129 135 137 134 129 124 118 116 120 123 124 121 116 114 111 104 100 95 88 84 80 75 71 67 63 60 58 60 59 57 55 53 55 59 62 66 65 62 60 56 53 55 61 61 55 51 49 47 44 43 43 43 45 47 48 50 53 53 53
157 154 150 149 149 151 150 150 150 150 151 151 152 153 153 152 151 149 146 141 134 128 126 124 123 122 121 123 126 124 123 123 123 122 123 124 125 124 120 114 107 100 97 92 86 81 77 74 70 68 66 63 60 60 60 60 59 55 54 59 63 66 67 64 59 56 53 52 52 53 52 49 46 46 46 43 37 34 39 44 48 52 56 56 57
149 148 147 145 146 146 146 148 151 152 153 155 156 155 153 151 149 148 146 140 134 129 128 127 126 125 121 118 117 115 116 117 119 121 124 124 122 118 113 107 101 95 90 86 82 77 72 67 62 61 66 69 67 64 61 60 62 61 58 58 62 66 67 63 58 55 52 49 45 45 48 50 47 45 45 44 39 33 30 34 40 49 56 56 55
144 144 143 143 143 144 145 148 151 153 157 160 157 153 151 150 149 149 148 143 137 135 135 135 132 128 125 119 114 112 111 110 111 112 112 113 112 109 105 100 95 89 83 79 79 76 72 67 62 63 70 75 73 70 66 62 63 64 62 60 61 64 65 60 57 54 50 47 45 44 45 49 51 49 48 46 43 39 35 30 27 35 46 51 53
141 141 142 142 143 144 146 148 152 157 161 161 157 154 153 152 151 153 152 148 144 143 144 144 140 136 131 125 120 116 112 111 112 113 112 110 107 103 98 94 92 91 90 83 76 77 79 76 70 70 74 77 75 72 69 65 64 64 64 62 61 63 63 59 55 52 49 48 48 47 45 46 50 51 48 42 38 35 35 34 29 23 22 32 47
141 142 142 142 144 146 148 151 155 159 159 157 156 156 156 156 156 159 159 156 154 154 154 153 152 148 143 137 130 124 121 122 123 123 122 120 114 108 106 107 108 108 103 88 78 83 88 87 81 78 79 79 78 76 72 68 66 65 65 64 63 61 62 62 58 54 51 50 51 50 47 46 47 48 45 41 37 35 33 31 30 29 23 16 30
144 143 144 144 147 149 151 155 156 156 155 156 157 159 162 164 165 167 168 166 164 163 163 161 160 157 155 152 146 139 139 141 136 131 130 131 132 130 125 122 121 116 105 94 91 93 93 90 88 87 83 80 78 76 75 73 71 68 66 66 66 63 61 63 63 58 54 52 52 52 50 47 45 45 44 43 42 41 38 35 34 39 42 39 32
146 146 146 147 148 152 155 157 157 156 156 156 157 160 165 170 172 172 172 173 173 171 171 169 167 165 165 166 164 160 160 160 153 145 140 139 141 141 134 131 131 122 109 103 101 101 99 92 88 87 84 80 78 74 73 74 74 72 68 66 67 66 62 60 60 57 54 52 51 51 51 48 45 44 43 43 42 42 42 41 40 44 51 53 46
147 147 149 149 152 156 158 159 160 160 158 155 151 148 151 158 164 165 165 169 172 174 174 173 172 171 171 171 172 174 175 172 167 161 158 156 156 155 150 146 140 125 115 113 108 105 103 97 90 86 82 81 80 76 72 72 74 73 70 65 65 67 63 60 59 58 55 53 51 50 50 49 46 44 42 40 41 42 42 40 40 44 50 52 49
149 150 152 153 157 161 160 160 161 158 154 151 147 140 134 134 138 145 149 155 164 171 173 173 174 178 178 173 170 175 181 180 177 174 175 176 172 163 157 152 145 134 128 128 122 115 111 104 99 96 88 81 82 80 74 73 73 73 69 62 59 63 66 62 60 59 56 53 50 50 50 49 48 46 42 39 39 40 39 38 39 44 48 50 51
153 154 156 157 161 163 161 160 158 153 149 149 147 142 135 126 120 122 131 141 151 161 167 170 174 180 184 182 180 180 178 175 174 175 177 174 165 159 157 154 146 136 129 123 120 122 124 119 113 108 96 86 85 84 79 76 73 70 66 60 55 59 67 66 62 61 57 51 48 48 49 47 47 47 45 42 41 39 37 35 36 40 43 44 49
157 158 159 160 162 163 162 159 157 155 153 152 151 148 144 135 126 120 122 129 138 146 153 161 167 171 175 181 186 180 170 164 164 168 169 165 160 159 158 154 146 138 131 120 111 112 122 127 124 118 106 96 93 91 86 81 74 66 62 60 58 60 69 75 70 63 58 51 45 45 47 47 46 46 45 42 39 38 37 35 34 36 37 36 39
162 163 164 164 164 164 162 161 160 159 159 157 155 154 152 147 140 133 128 129 131 135 141 149 157 163 166 168 171 169 163 160 162 167 167 165 163 162 159 156 152 146 139 129 119 119 129 136 133 128 122 113 106 98 88 83 79 68 59 57 60 66 71 78 77 65 57 52 46 42 44 47 47 45 44 40 34 32 35 36 35 33 32 30 32
167 167 168 167 166 165 164 164 162 161 161 161 160 159 157 155 152 149 145 142 140 140 142 147 153 161 167 167 166 167 165 164 168 170 168 164 164 164 163 162 162 160 150 138 132 137 145 148 145 140 135 129 123 115 95 81 82 78 58 49 54 62 62 65 70 63 52 48 44 39 41 45 45 42 40 38 31 27 28 31 33 32 29 25 25
168 169 170 168 168 167 167 166 165 165 165 165 164 164 164 162 160 159 157 156 154 152 152 153 155 159 164 166 167 167 168 170 172 170 166 165 167 170 173 177 185 192 181 163 154 153 157 162 169 170 157 144 136 133 123 94 84 81 55 37 41 50 55 54 54 53 46 41 34 29 34 41 42 39 35 31 26 25 24 25 27 29 28 23 20
170 170 171 170 170 169 168 168 170 171 170 170 170 170 168 167 167 165 163 163 164 162 161 160 160 162 165 168 170 171 171 172 172 170 170 172 176 180 187 192 201 213 195 175 170 177 181 179 182 185 182 177 166 155 157 151 122 96 64 26 22 31 42 39 30 33 45 37 22 16 23 42 42 38 33 26 22 22 23 23 23 26 27 23 22
173 173 172 172 171 170 169 170 172 175 176 176 176 175 172 170 170 169 168 168 169 168 167 167 169 170 171 170 171 173 175 176 177 178 181 184 188 191 197 198 203 214 197 181 180 190 193 190 192 193 189 191 200 203 203 205 210 214 155 44 355 5 16 13 8 21 52 41 18 12 21 60 55 37 30 26 20 20 22 19 18 23 26 24 26
177 175 172 172 172 172 172 174 175 176 176 176 178 177 174 171 169 169 169 169 170 172 172 173 176 179 177 174 174 177 180 184 187 188 189 192 194 199 206 211 221 221 197 188 195 210 209 206 210 210 203 200 204 208 211 216 226 241 228 210 255 318 343 353 359 13 43 41 17 13 25 70 67 36 29 24 14 13 19 17 13 16 21 23 26
177 176 175 175 175 175 175 176 177 176 175 175 177 176 173 170 170 170 170 171 174 177 178 180 183 184 182 181 181 183 187 191 193 194 195 196 199 206 216 225 231 222 206 201 209 215 213 217 223 222 217 214 213 215 221 229 234 240 240 243 259 271 287 322 346 355 6 17 8 11 31 58 50 27 26 23 9 4 12 15 10 5 8 14 18
177 179 179 179 178 178 178 179 178 176 175 176 177 175 173 173 174 174 174 176 179 182 186 189 190 188 188 189 190 193 196 197 197 198 198 199 203 212 218 228 239 229 215 213 215 211 213 225 231 223 215 214 216 219 224 232 241 245 245 246 251 259 262 275 305 323 330 327 323 342 14 36 24 11 10 5 353 351 2 8 2 351 354 0 5
179 181 181 179 179 179 179 178 176 174 175 177 178 177 176 178 179 178 178 180 182 186 191 194 193 192 193 194 196 200 203 200 197 197 199 203 213 218 215 218 234 234 223 221 225 223 225 230 230 221 217 220 226 230 235 241 245 245 247 249 249 252 258 261 268 285 294 293 292 299 317 358 357 350 343 339 336 337 351 359 352 343 346 354 355
182 184 181 179 179 180 178 176 173 172 175 178 180 179 181 183 183 182 181 182 185 189 194 195 194 194 196 197 198 202 203 199 198 202 209 220 234 234 223 218 225 230 230 232 234 231 229 229 229 227 228 233 241 249 254 254 247 241 243 248 245 248 260 266 264 268 277 285 291 285 262 263 303 310 312 324 330 329 333 341 341 341 345 350 349
182 182 179 176 175 175 173 173 173 174 176 179 180 182 184 187 187 185 184 184 187 192 197 197 194 195 199 202 201 201 202 203 207 215 224 234 245 241 228 224 225 226 228 233 235 234 233 232 233 237 243 248 253 259 263 260 250 246 250 253 252 254 260 265 268 270 272 278 286 284 268 259 262 264 272 294 312 312 307 310 318 325 333 337 337
178 176 171 167 167 167 169 172 175 176 178 180 180 181 185 188 188 185 183 185 189 195 201 202 200 201 206 207 205 204 205 208 215 224 228 232 238 239 231 231 233 231 228 230 236 240 240 238 238 241 247 252 253 254 254 253 253 255 260 263 263 262 260 260 264 269 270 272 279 284 279 269 262 261 262 266 282 293 292 291 297 304 306 312 319
171 168 164 163 165 165 168 173 178 181 181 181 181 181 183 187 188 184 184 186 191 196 202 205 204 205 208 207 206 207 209 213 220 229 232 232 233 232 229 231 237 238 237 237 241 243 241 238 239 243 247 251 254 252 251 251 254 257 260 264 267 269 269 268 266 266 268 272 277 280 278 273 269 270 266 259 262 275 281 282 290 295 291 287 292
166 164 164 166 169 169 171 177 183 186 184 181 181 182 184 187 188 186 187 191 195 199 205 209 205 204 207 206 206 209 213 218 225 233 236 236 234 232 230 231 237 243 244 242 244 246 244 240 241 244 248 252 256 257 258 260 261 262 262 261 260 262 266 268 267 267 270 273 274 274 275 274 272 273 270 263 262 269 275 278 283 287 284 278 278
167 164 164 168 171 174 179 182 183 185 184 181 181 184 187 190 193 193 194 197 198 202 209 213 210 206 207 208 209 213 216 221 228 235 238 236 233 230 230 233 236 238 240 241 244 247 247 245 246 248 250 253 256 260 263 266 267 269 270 268 265 263 263 262 264 267 270 271 271 271 271 271 272 271 271 269 269 271 276 279 280 279 277 275 275
171 167 167 172 176 180 185 186 184 183 182 183 185 189 192 196 201 201 200 201 202 205 210 215 216 214 211 211 213 217 220 223 228 232 233 232 229 228 233 240 242 241 241 242 244 246 246 246 247 247 248 251 256 260 265 268 270 272 274 275 274 273 270 266 263 263 264 266 269 269 268 267 269 270 271 271 272 273 275 278 278 275 272 272 273
176 174 172 176 181 185 188 189 188 188 186 186 188 192 197 202 209 213 207 203 204 206 211 214 217 220 221 219 219 220 222 224 228 231 232 234 235 237 240 245 247 248 247 247 248 249 248 247 246 246 247 250 254 258 264 269 273 274 276 277 279 280 279 275 271 266 263 262 263 265 266 266 267 268 270 270 271 271 272 274 275 273 270 268 268
181 184 182 180 185 192 196 193 190 190 192 195 197 198 199 204 212 219 219 212 208 210 213 215 217 222 227 230 231 231 231 231 234 237 239 240 241 243 244 245 248 250 252 252 253 252 250 248 248 248 248 249 252 256 261 268 273 276 277 278 278 279 278 277 275 272 268 264 261 261 261 262 262 264 267 268 268 268 269 271 271 270 268 266 267
Height
811 812 813 815 816 817 818 820 822 824 826 828 830 832 835 836 837 838 838 839 839 841 842 843 843 843 842 843 843 844 844 845 845 845 844 844 843 843 842 842 842 841 841 841 840 839 838 836 835 834 833 831 829 827 825 823 821 818 817 815 814 813 811 810 811 811 809 808 805 802 799 794 791 787 784 780 777 775 773 771 769 766 763 761 759
811 812 813 814 815 817 819 822 823 825 827 829 831 834 836 836 837 837 838 839 840 841 843 843 843 842 842 843 843 844 845 845 845 845 845 845 844 843 843 843 843 843 843 842 841 841 839 838 837 836 834 833 831 830 828 825 823 821 819 818 816 815 814 813 813 813 811 808 806 803 799 796 792 789 786 783 780 777 775 772 771 769 767 765 762
811 812 813 814 815 817 820 822 824 826 828 830 832 834 836 836 837 838 838 839 840 841 843 842 842 842 842 843 844 845 845 845 846 845 845 845 844 844 844 844 844 844 844 844 843 842 841 839 838 837 836 834 833 832 830 828 825 823 821 820 819 818 817 816 816 815 813 811 808 804 801 798 795 792 789 786 783 780 776 774 772 770 769 766 764
810 811 812 813 815 818 820 822 825 827 829 831 833 835 835 836 837 838 838 839 840 841 842 842 842 842 843 844 845 845 846 846 846 846 845 845 845 845 845 846 846 846 845 845 844 843 842 840 840 839 837 835 834 833 832 830 828 826 824 823 822 821 820 819 818 817 815 813 810 808 804 801 798 794 790 787 784 782 779 776 773 771 769 767 764
809 810 811 814 816 818 821 823 825 828 830 832 833 835 835 836 838 838 838 839 840 840 841 842 843 843 844 845 845 846 846 846 846 846 846 846 846 846 847 847 847 847 847 846 845 844 842 841 841 840 838 837 836 835 833 832 830 828 827 826 825 824 823 822 820 819 817 815 812 810 807 803 800 796 792 788 784 782 780 777 775 772 770 768 766
808 810 812 814 816 819 821 824 826 828 830 832 834 835 836 837 838 838 838 839 839 840 841 842 843 844 845 845 846 846 846 846 846 847 847 847 847 848 848 848 849 848 848 847 845 844 843 842 842 841 839 838 837 836 835 834 832 831 829 828 828 826 825 823 822 820 818 816 814 811 807 804 801 798 795 792 788 784 780 778 775 773 771 769 767
808 810 812 814 817 819 821 824 826 829 831 832 834 835 837 838 838 838 838 839 840 840 841 843 844 844 845 846 846 846 846 847 847 848 848 848 848 849 849 849 850 849 848 847 846 845 844 843 842 841 840 839 838 837 836 835 834 833 832 831 830 828 827 825 823 821 819 817 815 812 810 807 804 801 799 796 792 788 784 781 778 776 774 772 770
808 810 812 814 817 819 821 824 826 829 831 832 834 836 837 838 838 838 838 839 840 841 841 843 844 845 846 846 847 847 847 847 848 848 848 849 849 849 850 850 850 850 849 847 847 846 845 844 843 842 841 840 839 838 838 837 836 835 834 833 832 830 828 827 825 823 821 819 817 815 812 809 806 803 800 795 792 790 788 787 784 781 779 777 775
809 810 812 814 816 818 821 824 826 829 831 832 835 837 837 838 838 838 839 839 840 841 842 843 845 846 847 847 847 848 848 848 849 849 849 849 849 850 850 851 850 849 849 848 847 846 846 845 844 843 842 841 840 839 839 838 838 837 836 835 834 832 830 828 826 825 823 821 819 817 815 811 807 804 801 798 797 796 794 792 789 786 784 781 779
809 811 812 814 815 818 820 823 826 828 830 833 835 836 837 837 838 839 839 840 840 841 843 844 845 847 847 848 848 849 849 850 850 850 850 850 850 850 851 851 850 849 848 848 847 847 846 845 844 843 842 841 841 841 840 839 839 838 838 837 835 834 831 829 828 826 825 823 822 820 817 815 812 809 806 804 804 802 798 795 792 789 786 783 781
810 812 812 813 815 817 820 823 825 827 830 832 834 835 836 837 838 839 840 840 841 842 843 845 846 848 848 849 849 850 850 851 851 851 850 850 850 851 851 851 850 849 848 848 848 847 846 845 845 844 843 842 842 842 841 841 840 840 839 838 837 835 833 831 829 828 827 826 825 823 821 819 818 814 811 807 805 803 801 798 795 792 789 786 784
812 813 814 816 817 817 819 821 824 827 829 831 833 834 836 837 838 839 840 841 842 842 844 846 847 849 849 850 851 851 852 853 853 852 851 851 851 851 851 851 850 850 849 848 848 847 846 846 845 845 844 844 843 843 842 842 841 841 840 840 839 837 835 833 832 830 829 828 827 826 825 824 822 818 814 811 808 805 803 800 798 796 794 792 789
813 815 816 818 820 821 820 820 823 826 828 830 832 833 835 836 837 839 840 841 842 843 845 847 848 850 851 851 852 852 853 854 854 853 852 853 853 852 851 851 850 850 850 849 849 848 847 846 846 846 846 845 845 844 844 843 842 842 841 841 840 839 837 836 834 833 832 831 830 829 828 827 825 822 819 816 812 808 805 803 801 799 797 796 794
814 815 817 819 822 824 823 821 822 825 827 829 831 832 834 836 837 839 840 842 843 844 846 848 850 851 852 852 853 853 854 854 854 854 854 854 854 853 852 852 851 851 851 851 850 849 848 848 847 848 848 847 847 846 846 845 844 843 842 842 841 840 839 838 836 835 834 833 832 832 832 830 828 826 823 819 815 812 809 807 805 802 801 800 798
813 815 816 818 820 823 824 823 823 824 827 829 830 832 834 836 837 839 840 842 844 845 847 849 851 852 853 854 854 854 854 855 854 854 854 854 854 854 853 853 853 853 853 852 851 851 850 850 850 850 850 849 849 848 847 847 846 845 844 843 842 842 840 839 838 837 836 835 834 834 833 832 830 828 825 821 818 816 814 811 809 806 804 801 798
813 814 815 816 818 821 822 823 823 824 826 828 830 832 834 836 838 839 841 843 845 846 848 850 851 852 854 855 855 855 855 855 854 855 855 855 855 854 854 854 854 854 854 854 853 852 852 852 852 852 852 851 851 850 849 848 847 846 845 844 844 843 842 841 840 839 838 837 836 835 835 834 832 829 827 824 821 819 816 812 809 806 802 800 797
811 812 814 815 817 819 821 822 823 824 826 828 830 832 834 836 838 840 841 843 845 847 848 850 852 853 854 856 856 856 855 854 854 855 855 855 855 854 854 855 855 855 855 855 854 854 854 854 854 854 854 853 853 852 851 850 849 848 847 846 845 844 843 843 842 841 840 839 838 837 836 835 834 832 829 826 823 820 815 810 808 806 803 801 800
810 811 812 814 816 818 820 822 823 825 826 828 830 832 834 837 839 841 842 844 845 847 849 850 852 853 855 856 856 856 855 854 854 855 855 855 855 855 855 855 855 856 856 856 856 856 856 856 856 856 856 855 855 854 853 852 851 849 849 847 846 845 845 844 844 843 842 841 840 839 838 837 835 833 831 828 825 821 816 813 813 810 807 806 805
808 809 811 813 815 817 819 821 823 825 827 828 831 833 835 837 839 841 843 844 846 848 849 850 852 854 855 856 856 856 855 854 854 855 855 855 855 855 856 856 856 857 857 857 858 857 858 858 858 858 858 857 857 856 855 854 852 851 850 849 848 847 847 846 845 845 844 843 842 841 840 838 837 835 833 831 828 824 821 819 818 814 812 811 810
806 808 810 811 814 816 819 821 823 825 827 829 831 833 835 837 840 842 843 845 846 848 849 850 852 854 856 856 856 856 855 854 855 855 855 856 856 856 856 856 857 858 858 859 859 859 859 859 860 860 859 859 858 857 857 856 854 853 852 851 850 849 848 848 847 846 845 844 844 843 841 840 839 837 835 833 830 828 825 823 821 818 816 815 813
805 808 809 811 814 817 819 821 823 825 827 829 831 834 836 838 840 841 843 845 846 848 849 851 853 855 856 856 856 856 855 855 855 856 856 856 857 857 857 857 858 858 859 860 860 860 861 861 861 861 861 860 860 859 858 857 856 855 854 853 852 851 850 849 849 848 847 846 845 844 843 842 840 839 837 835 833 831 829 827 825 822 820 818 816
805 807 809 811 814 816 819 821 823 826 828 830 832 834 836 838 840 841 843 845 846 847 849 851 853 855 856 856 856 855 855 855 856 856 856 857 858 858 858 858 859 859 860 861 861 861 862 862 862 862 862 862 861 860 860 859 857 856 855 854 853 852 851 850 850 849 848 847 846 845 844 843 841 840 839 837 836 834 832 830 828 826 824 822 820
804 806 809 811 814 816 819 821 823 826 828 830 832 834 836 838 840 841 843 844 845 847 849 851 853 855 856 856 856 855 855 855 856 856 857 858 859 859 860 860 861 861 861 861 862 862 863 863 863 863 863 863 862 862 861 860 858 857 856 855 854 853 852 852 851 850 849 848 848 847 845 844 843 842 840 839 838 837 835 833 832 830 828 826 824
803 806 809 811 814 817 819 821 824 826 828 831 832 834 836 838 840 841 843 844 845 847 850 852 854 855 856 856 855 854 855 855 856 857 858 859 860 861 861 861 862 862 862 862 863 863 863 863 864 864 864 863 863 863 862 861 860 859 858 857 856 855 854 853 853 852 851 850 849 848 847 846 845 843 842 841 840 839 837 836 834 833 831 829 828
803 806 809 812 814 817 819 821 824 827 829 831 832 834 835 837 839 841 843 843 844 847 849 852 854 855 856 855 854 854 855 856 857 858 859 860 861 862 862 862 862 863 863 863 863 863 864 864 864 864 864 864 864 863 863 862 861 860 859 858 858 857 856 855 854 853 852 851 850 849 849 848 847 846 845 844 842 841 839 838 836 835 833 832 831
803 806 809 812 814 817 819 822 825 827 830 831 832 833 835 836 838 841 842 843 844 846 848 852 854 855 855 854 854 855 856 857 858 859 860 861 861 862 863 863 863 863 863 863 864 864 864 864 864 864 864 865 864 864 863 863 862 862 861 860 859 858 858 857 856 855 854 853 852 851 850 850 849 848 847 846 844 842 841 840 838 837 835 834 833
803 806 809 812 814 817 819 822 825 828 830 831 833 834 835 836 838 839 840 842 843 845 847 850 852 854 854 854 854 855 857 858 859 860 860 861 862 862 863 863 863 863 864 864 864 864 864 864 864 865 865 865 865 865 864 864 863 863 862 861 861 860 859 858 857 856 855 855 854 853 852 851 850 849 848 846 845 843 842 841 839 838 836 835 834
804 806 809 812 814 816 819 822 825 827 829 830 832 833 835 836 837 838 839 840 841 843 846 848 850 852 852 853 854 855 857 858 859 860 861 861 862 862 863 863 863 864 864 864 864 864 864 864 865 866 866 866 866 865 865 864 864 863 863 863 862 861 860 859 858 858 857 856 855 854 854 853 851 850 849 847 846 845 844 842 841 839 838 837 835
803 807 809 811 814 817 819 822 824 825 827 828 831 833 834 836 836 837 838 839 840 842 844 846 848 850 851 852 853 855 856 858 859 860 860 861 862 862 863 863 864 864 864 864 864 865 865 865 866 866 866 866 866 865 865 865 864 864 864 863 863 862 861 860 860 859 858 858 857 856 855 854 853 852 850 849 847 846 845 844 843 841 840 839 837
803 806 808 811 814 816 819 821 823 824 825 827 829 831 833 835 836 837 837 838 840 842 843 845 847 849 850 852 853 854 856 857 859 860 860 861 862 862 863 863 864 864 864 865 865 865 865 865 866 867 867 867 866 866 866 865 865 864 864 864 863 863 862 861 861 860 860 859 858 857 856 855 854 853 852 851 849 848 847 846 845 843 842 840 839
802 804 807 810 813 815 818 820 821 823 824 825 827 829 831 833 835 836 837 838 840 842 843 845 847 848 849 851 853 855 856 857 858 859 860 861 862 862 863 863 864 864 865 865 865 865 865 866 866 867 867 867 866 866 866 865 865 865 864 864 864 863 863 862 862 861 861 860 859 858 857 856 855 854 853 852 851 850 849 848 846 845 844 842 841
800 803 807 809 812 815 817 819 820 822 823 824 826 827 829 831 833 835 837 838 839 841 843 845 846 848 849 851 852 854 855 856 857 859 860 861 861 862 863 863 864 864 865 864 864 865 865 866 867 867 867 867 866 866 866 865 865 865 864 864 864 863 863 863 862 862 861 860 860 859 858 857 856 855 855 854 853 851 850 849 848 847 845 845 843
801 804 807 809 811 814 816 818 819 821 822 823 825 826 828 829 831 833 836 838 840 842 843 845 846 848 849 850 852 853 854 855 857 858 859 860 861 862 863 863 864 864 864 864 864 864 865 866 867 867 867 867 866 866 866 866 865 865 864 864 864 863 863 863 863 862 861 861 860 859 858 858 857 856 856 855 854 853 852 851 850 848 847 846 845
801 804 806 808 810 813 815 817 818 820 821 822 824 825 827 828 830 831 834 837 839 842 844 845 847 848 849 850 851 853 854 855 857 858 859 860 861 862 862 863 864 864 864 864 864 864 865 866 866 867 867 866 866 866 866 865 865 865 864 864 864 863 863 863 862 862 861 861 860 859 859 858 857 857 856 855 855 854 853 852 851 850 848 848 846
802 805 807 808 810 813 815 816 818 819 821 822 824 825 827 828 829 831 833 835 839 841 843 845 847 848 849 850 851 853 854 855 857 858 859 860 861 861 862 863 863 863 863 864 864 864 865 866 866 866 866 866 866 866 865 865 865 864 864 864 864 863 863 863 862 862 861 861 860 860 859 859 858 857 857 856 855 854 853 852 852 851 850 849 848
802 805 807 809 811 813 815 816 818 819 821 822 824 826 827 828 829 831 833 835 838 840 843 845 846 848 849 850 851 853 854 855 857 858 859 860 860 861 862 862 862 863 863 863 863 864 865 865 865 866 866 866 865 865 865 865 865 864 864 864 863 863 863 862 862 862 861 861 860 860 859 859 858 857 857 856 855 855 854 853 852 851 850 850 848
801 804 806 809 811 813 815 816 818 820 821 823 824 825 827 828 830 831 833 835 837 839 841 843 845 847 849 850 851 853 854 855 857 858 858 859 860 861 861 861 862 862 862 862 863 863 864 865 865 865 865 865 865 865 865 865 864 864 864 863 863 863 862 862 862 861 861 861 860 859 859 859 858 858 857 856 856 855 854 853 853 852 851 850 849
801 803 805 808 810 812 814 816 818 820 821 823 824 825 826 828 829 831 832 834 836 838 840 842 844 846 847 849 851 852 854 855 856 857 858 859 859 860 860 860 860 861 861 861 862 863 863 864 864 864 864 864 864 864 864 864 864 864 863 863 862 862 862 861 861 861 861 860 860 859 859 858 858 858 857 856 856 855 854 854 853 852 851 850 849
802 804 806 808 809 811 813 815 817 819 820 822 823 824 826 827 829 830 832 834 835 837 839 841 843 845 846 848 850 851 853 854 855 856 857 858 858 859 859 859 859 860 860 861 861 862 862 863 863 864 864 864 864 864 864 863 863 863 863 862 862 862 861 861 861 860 860 860 859 859 858 858 858 857 857 856 856 855 854 854 853 852 851 851 850
801 803 805 807 808 810 812 814 815 817 819 820 822 824 825 826 828 829 831 833 835 836 838 840 842 844 845 847 848 850 851 853 854 855 856 857 857 858 858 858 858 858 859 859 860 861 861 862 862 862 863 863 863 863 863 863 863 862 862 862 861 861 860 860 860 860 859 859 858 858 858 857 857 857 856 856 855 855 854 853 853 852 851 851 850
799 802 804 805 807 809 810 812 814 815 817 819 821 823 824 825 827 829 830 832 834 836 838 840 841 843 845 846 848 849 850 852 853 854 855 855 856 857 857 857 857 857 857 858 858 859 860 860 861 861 861 861 861 862 862 862 862 862 861 861 860 860 859 859 859 859 858 858 858 857 857 857 857 856 856 855 855 854 853 853 852 851 851 850 849
798 800 802 803 805 807 808 811 813 814 816 819 820 822 823 825 826 828 829 831 833 835 837 839 841 842 844 845 847 848 849 851 852 853 854 854 855 855 855 855 855 856 856 857 857 858 859 859 859 860 860 860 860 860 860 861 861 860 860 860 859 859 858 858 857 857 857 857 857 856 856 856 856 855 855 854 854 853 853 852 851 851 850 849 849
797 799 800 801 803 805 807 810 812 814 815 817 819 821 823 824 825 827 828 830 832 834 836 838 839 841 843 844 846 847 848 849 851 851 852 853 853 853 853 854 854 854 855 855 855 856 857 857 858 858 858 858 859 859 859 859 859 859 859 858 858 858 857 857 856 856 856 855 855 855 855 855 854 854 854 853 853 852 852 851 851 850 849 849 848
797 798 799 801 802 805 807 810 812 813 815 817 819 820 822 824 825 826 828 830 831 833 835 836 838 839 841 842 844 845 846 847 848 849 850 851 851 851 851 852 852 852 853 853 854 855 855 856 856 856 857 857 857 857 857 857 857 858 857 857 857 856 856 855 855 854 854 854 854 854 853 853 853 852 852 852 851 851 851 850 850 849 848 848 847
797 798 799 800 803 805 808 810 812 814 815 816 818 820 822 823 824 825 827 829 830 832 833 835 836 838 839 840 842 843 844 845 846 847 847 848 848 849 849 849 850 850 851 851 852 853 853 853 854 854 854 855 855 855 855 855 855 855 855 855 855 855 854 854 853 853 852 852 852 851 851 851 851 850 850 850 850 849 849 848 848 848 847 847 846
797 798 799 801 803 805 807 810 812 813 814 816 817 819 821 822 823 825 826 828 829 831 832 833 834 836 836 838 839 840 841 843 843 844 845 845 846 846 847 847 848 848 849 849 850 850 850 851 851 852 852 852 852 853 853 853 853 853 853 853 853 852 852 852 852 851 850 850 850 849 849 849 849 849 848 848 848 847 847 846 846 846 845 845 844
798 800 801 802 804 806 808 810 812 813 814 815 816 818 820 822 823 824 826 827 828 830 831 832 833 834 834 835 837 838 839 840 841 841 842 842 843 844 845 845 845 846 846 847 847 848 848 848 849 849 849 849 850 850 850 850 850 850 850 850 850 850 849 849 849 848 848 848 847 847 847 846 846 846 846 846 845 845 844 844 844 844 843 843 842
800 801 802 804 805 807 809 810 811 813 814 815 816 818 819 821 822 823 825 826 827 829 830 831 831 832 833 834 835 836 837 838 838 839 839 840 840 841 842 842 843 843 844 844 845 845 845 846 846 846 846 847 847 847 847 847 847 847 847 847 847 847 847 847 846 846 846 845 845 844 844 844 843 843 843 843 843 842 842 842 841 841 841 840 840
800 802 803 805 806 808 809 810 811 812 813 815 816 817 819 820 821 822 823 825 826 827 829 830 830 831 831 832 833 834 835 835 836 836 837 837 838 839 839 840 840 840 841 841 842 842 842 843 843 843 843 843 844 844 844 844 844 844 844 844 843 843 843 843 843 843 843 842 842 842 841 841 840 840 840 840 839 839 839 839 838 838 838 837 837
801 803 804 805 807 808 809 810 811 812 813 815 816 817 818 819 820 821 822 823 824 826 827 828 829 830 830 831 831 832 833 833 834 834 834 835 835 836 836 836 837 837 837 838 838 838 839 839 839 840 840 840 840 840 841 840 840 840 840 840 840 840 840 839 839 839 839 839 838 838 838 838 837 837 836 836 836 836 835 835 834 834 834 834 833
802 803 804 805 806 808 809 810 811 812 813 814 815 816 817 818 819 820 821 822 823 824 825 826 827 828 829 829 830 830 830 830 831 831 831 832 832 833 833 834 834 834 834 835 835 835 835 836 836 836 836 837 837 837 837 837 837 836 836 836 836 836 836 835 835 835 835 834 834 834 834 834 834 833 833 832 832 831 831 831 830 830 830 829 829